CW6666 Weather Reports


Display with metric or nautical units.
time (UTC)temp
F
wind
direction
speed
MPH
gust
MPH
rain 1hr
in
rain 24hr
in
rain mn
in
humidity
%
barometer
mb
20170530091316 84 89 4.0 7.0 0.00 0.00 0.00 82 1008.0
20170530090816 84 70 5.0 7.0 0.00 0.00 0.00 82 1008.0
20170530090316 84 81 6.0 7.0 0.00 0.00 0.00 82 1008.0
20170530085816 84 92 6.0 7.0 0.00 0.00 0.00 82 1007.8
20170530085316 84 90 5.0 9.0 0.00 0.00 0.00 82 1007.8
20170530084816 84 86 7.0 9.0 0.00 0.00 0.00 82 1007.8
20170530084316 85 79 5.0 9.0 0.00 0.00 0.00 82 1007.5
20170530083816 85 67 6.0 9.0 0.00 0.00 0.00 82 1007.5
20170530083316 85 60 9.0 10.0 0.00 0.00 0.00 82 1007.5
20170530082816 85 72 8.0 10.0 0.00 0.00 0.00 82 1007.2
20170530082316 85 61 9.0 12.0 0.00 0.00 0.00 82 1007.2
20170530081816 85 78 7.0 12.0 0.00 0.00 0.00 82 1007.2
20170530081317 85 59 10.0 11.0 0.00 0.00 0.00 83 1007.2
20170530080816 85 69 7.0 10.0 0.00 0.00 0.00 83 1007.2
20170530080316 85 92 3.0 10.0 0.00 0.00 0.00 81 1007.2
20170530075816 86 82 8.0 10.0 0.00 0.00 0.00 82 1006.9
20170530075316 86 67 5.0 9.0 0.00 0.00 0.00 80 1006.9
20170530074816 86 61 8.0 8.0 0.00 0.00 0.00 79 1006.9
20170530074316 86 66 6.0 7.0 0.00 0.00 0.00 79 1006.8
20170530073816 86 80 5.0 8.0 0.00 0.00 0.00 79 1006.8
20170530073316 86 82 4.0 8.0 0.00 0.00 0.00 78 1006.8
20170530072816 86 91 5.0 9.0 0.00 0.00 0.00 79 1006.6
20170530072316 86 78 7.0 9.0 0.00 0.00 0.00 78 1006.6
20170530071816 86 82 7.0 9.0 0.00 0.00 0.00 77 1006.6
20170530071316 86 92 6.0 9.0 0.00 0.00 0.00 78 1006.4
20170530070816 86 94 7.0 10.0 0.00 0.00 0.00 78 1006.4
20170530070316 86 76 7.0 10.0 0.00 0.00 0.00 77 1006.4
20170530065816 87 76 7.0 10.0 0.00 0.00 0.00 77 1006.2
20170530065316 87 87 7.0 9.0 0.00 0.00 0.00 76 1006.2
20170530064816 87 83 6.0 10.0 0.00 0.00 0.00 76 1006.2
20170530064316 87 92 6.0 10.0 0.00 0.00 0.00 75 1006.2
20170530063816 87 84 9.0 10.0 0.00 0.00 0.00 75 1006.2
20170530063316 87 82 5.0 10.0 0.00 0.00 0.00 74 1006.2
20170530062816 87 88 5.0 10.0 0.00 0.00 0.00 73 1006.2
20170530062316 87 85 7.0 11.0 0.00 0.00 0.00 73 1006.2
20170530061816 87 77 7.0 11.0 0.00 0.00 0.00 73 1006.2
20170530061316 88 74 9.0 10.0 0.00 0.00 0.00 75 1006.2
20170530060816 88 78 6.0 11.0 0.00 0.00 0.00 74 1006.2
20170530060316 88 67 9.0 11.0 0.00 0.00 0.00 74 1006.2
20170530055816 88 80 11.0 11.0 0.00 0.00 0.00 72 1006.2
20170530055316 87 84 9.0 11.0 0.00 0.00 0.00 75 1006.2
20170530054816 88 77 8.0 10.0 0.00 0.00 0.00 75 1006.2
20170530054316 88 85 7.0 9.0 0.00 0.00 0.00 75 1006.2
20170530053816 88 79 8.0 10.0 0.00 0.00 0.00 75 1006.2
20170530053316 88 87 6.0 11.0 0.00 0.00 0.00 74 1006.2
20170530052816 88 91 9.0 11.0 0.00 0.00 0.00 74 1006.4
20170530052316 88 89 7.0 11.0 0.00 0.00 0.00 75 1006.4
20170530051816 88 80 9.0 11.0 0.00 0.00 0.00 75 1006.4
20170530051316 88 83 8.0 11.0 0.00 0.00 0.00 75 1006.5
20170530050816 88 85 9.0 11.0 0.00 0.00 0.00 74 1006.5
20170530050316 88 87 8.0 11.0 0.00 0.00 0.00 77 1006.5
20170530045816 87 101 7.0 11.0 0.00 0.00 0.00 78 1006.7
20170530045316 88 86 8.0 11.0 0.00 0.00 0.00 78 1006.7
20170530044816 88 92 7.0 10.0 0.00 0.00 0.00 76 1006.7
20170530044316 88 86 9.0 11.0 0.00 0.00 0.00 76 1006.9
20170530043816 88 73 10.0 11.0 0.00 0.00 0.00 76 1006.9
20170530043316 88 73 9.0 11.0 0.00 0.00 0.00 75 1006.9
20170530042816 88 86 6.0 11.0 0.00 0.00 0.00 76 1007.1
20170530042316 88 67 8.0 11.0 0.00 0.00 0.00 76 1007.1
20170530041816 88 79 7.0 11.0 0.00 0.00 0.00 75 1007.1
20170530041316 88 78 6.0 10.0 0.00 0.00 0.00 77 1007.2
20170530040816 88 92 7.0 11.0 0.00 0.00 0.00 77 1007.2
20170530040316 88 84 7.0 11.0 0.00 0.00 0.00 75 1007.2
20170530035816 89 79 9.0 10.0 0.00 0.00 0.00 76 1007.4
20170530035316 89 96 8.0 10.0 0.00 0.00 0.00 76 1007.4
20170530034816 89 89 10.0 11.0 0.00 0.00 0.00 75 1007.4
20170530034316 89 95 9.0 11.0 0.00 0.00 0.00 75 1007.5
20170530033816 89 93 9.0 11.0 0.00 0.00 0.00 74 1007.5
20170530033316 89 65 9.0 11.0 0.00 0.00 0.00 74 1007.5
20170530032816 89 82 9.0 11.0 0.00 0.00 0.00 74 1007.7
20170530032316 89 96 9.0 11.0 0.00 0.00 0.00 74 1007.7
20170530031816 89 77 8.0 12.0 0.00 0.00 0.00 75 1007.7
20170530031316 88 82 10.0 12.0 0.00 0.00 0.00 74 1007.8
20170530030816 88 80 8.0 12.0 0.00 0.00 0.00 76 1007.8
20170530030316 88 90 10.0 12.0 0.00 0.00 0.00 77 1007.8
20170530025816 88 83 7.0 11.0 0.00 0.00 0.00 77 1008.1
20170530025316 88 78 10.0 12.0 0.00 0.00 0.00 78 1008.1
20170530024816 87 71 10.0 12.0 0.00 0.00 0.00 79 1008.1
20170530024316 88 71 6.0 10.0 0.00 0.00 0.00 77 1008.2
20170530023816 88 71 9.0 10.0 0.00 0.00 0.00 77 1008.2
20170530023316 88 76 9.0 11.0 0.00 0.00 0.00 77 1008.2
20170530022816 88 81 10.0 12.0 0.00 0.00 0.00 78 1008.2
20170530022316 88 77 9.0 12.0 0.00 0.00 0.00 77 1008.2
20170530021816 88 66 9.0 12.0 0.00 0.00 0.00 76 1008.2
20170530021316 88 65 8.0 12.0 0.00 0.00 0.00 77 1008.2
20170530020816 88 64 11.0 12.0 0.00 0.00 0.00 76 1008.2
20170530020316 88 71 6.0 11.0 0.00 0.00 0.00 76 1008.2
20170530015816 88 69 6.0 10.0 0.00 0.00 0.00 76 1008.5
20170530015316 88 67 7.0 10.0 0.00 0.00 0.00 78 1008.5
20170530014816 87 57 7.0 7.0 0.00 0.00 0.00 80 1008.5
20170530014316 87 87 5.0 7.0 0.00 0.00 0.00 78 1008.7
20170530013816 87 76 5.0 10.0 0.00 0.00 0.00 78 1008.7
20170530013316 87 62 7.0 10.0 0.00 0.00 0.00 78 1008.7
20170530012816 87 69 9.0 10.0 0.00 0.00 0.00 78 1008.8
20170530012316 88 78 9.0 11.0 0.00 0.00 0.00 80 1008.8
20170530011816 88 80 7.0 12.0 0.00 0.00 0.00 78 1008.8
20170530011316 88 83 7.0 12.0 0.00 0.00 0.00 79 1008.9
20170530010816 87 67 9.0 12.0 0.00 0.00 0.00 79 1008.9
20170530010316 87 62 7.0 11.0 0.00 0.00 0.00 78 1008.9
20170530005816 88 65 6.0 12.0 0.00 0.00 0.00 78 1009.2
20170530005316 87 75 9.0 12.0 0.00 0.00 0.00 79 1009.2
20170530004816 87 74 9.0 10.0 0.00 0.00 0.00 77 1009.2
20170530004316 88 73 7.0 10.0 0.00 0.00 0.00 77 1009.3
20170530003816 88 67 7.0 11.0 0.00 0.00 0.00 78 1009.3
20170530003316 88 65 9.0 11.0 0.00 0.00 0.00 77 1009.3
20170530002816 88 63 8.0 11.0 0.00 0.00 0.00 78 1009.3
20170530002316 87 74 8.0 11.0 0.00 0.00 0.00 78 1009.3
20170530001816 87 63 9.0 11.0 0.00 0.00 0.00 79 1009.3
20170530001316 87 52 9.0 11.0 0.00 0.00 0.00 81 1009.3
20170530000816 87 70 10.0 11.0 0.00 0.00 0.00 80 1009.3
20170530000316 87 61 7.0 11.0 0.00 0.00 0.00 79 1009.3
20170529235816 87 58 10.0 11.0 0.00 0.00 0.00 79 1009.4
20170529235316 87 55 8.0 11.0 0.00 0.00 0.00 78 1009.4
20170529234816 87 65 9.0 11.0 0.00 0.00 0.00 79 1009.4
20170529234316 87 59 6.0 13.0 0.00 0.00 0.00 79 1009.6
20170529233816 87 63 11.0 13.0 0.00 0.00 0.00 79 1009.6
20170529233316 86 69 10.0 12.0 0.00 0.00 0.00 81 1009.6
20170529232816 86 57 10.0 11.0 0.00 0.00 0.00 82 1009.7
20170529232316 85 51 6.0 11.0 0.00 0.00 0.00 81 1009.7
20170529231816 86 65 8.0 10.0 0.00 0.00 0.00 79 1009.7
20170529231316 86 66 6.0 11.0 0.00 0.00 0.00 79 1009.7
20170529230816 86 62 9.0 11.0 0.00 0.00 0.00 80 1009.7
20170529230316 86 55 9.0 11.0 0.00 0.00 0.00 81 1009.7
20170529225816 86 64 10.0 11.0 0.00 0.00 0.00 80 1009.7
20170529225316 86 53 7.0 11.0 0.00 0.00 0.00 81 1009.7
20170529224816 86 39 9.0 11.0 0.00 0.00 0.00 81 1009.7
20170529224316 86 54 7.0 11.0 0.00 0.00 0.00 80 1009.5
20170529223816 86 67 9.0 11.0 0.00 0.00 0.00 79 1009.5
20170529223316 86 62 7.0 11.0 0.00 0.00 0.00 80 1009.5
20170529222816 86 59 8.0 11.0 0.00 0.00 0.00 81 1009.4
20170529222316 86 55 7.0 12.0 0.00 0.00 0.00 81 1009.4
20170529221816 86 40 10.0 12.0 0.00 0.00 0.00 81 1009.4
20170529221316 85 55 9.0 13.0 0.00 0.00 0.00 83 1009.3
20170529220816 85 52 9.0 13.0 0.00 0.00 0.00 83 1009.3
20170529220316 85 58 12.0 13.0 0.00 0.00 0.00 83 1009.3
20170529215816 84 52 9.0 11.0 0.00 0.00 0.00 84 1009.3
20170529215316 84 45 9.0 11.0 0.00 0.00 0.00 84 1009.3
20170529214816 84 65 8.0 11.0 0.00 0.00 0.00 83 1009.3
20170529214316 85 43 7.0 11.0 0.00 0.00 0.00 83 1009.2
20170529213816 85 57 7.0 12.0 0.00 0.00 0.00 83 1009.2
20170529213316 85 68 7.0 12.0 0.00 0.00 0.00 83 1009.2
20170529212816 85 59 9.0 11.0 0.00 0.00 0.00 84 1009.2
20170529212316 85 61 9.0 13.0 0.00 0.00 0.00 83 1009.2
20170529211816 85 53 11.0 13.0 0.00 0.00 0.00 83 1009.2
20170529211316 85 59 6.0 11.0 0.00 0.00 0.00 84 1009.1
20170529210816 84 65 11.0 12.0 0.00 0.00 0.00 83 1009.1
20170529210316 84 66 6.0 12.0 0.00 0.00 0.00 83 1009.1
20170529205816 84 51 11.0 12.0 0.00 0.00 0.00 84 1008.9
20170529205316 84 42 10.0 11.0 0.00 0.00 0.00 83 1008.9
20170529204816 84 38 7.0 12.0 0.00 0.00 0.00 85 1008.9
20170529204316 84 41 10.0 12.0 0.00 0.00 0.00 84 1008.8
20170529203816 84 46 9.0 12.0 0.00 0.00 0.00 85 1008.8
20170529203316 84 42 10.0 12.0 0.00 0.00 0.00 84 1008.8
20170529202816 83 51 10.0 12.0 0.00 0.00 0.00 85 1008.7
20170529202316 83 48 9.0 11.0 0.00 0.00 0.00 85 1008.7
20170529201816 83 48 9.0 11.0 0.00 0.00 0.00 86 1008.7
20170529201316 83 61 10.0 11.0 0.00 0.00 0.00 85 1008.7
20170529200816 83 55 9.0 12.0 0.00 0.00 0.00 86 1008.7
20170529200316 83 51 11.0 12.0 0.00 0.00 0.00 86 1008.7
20170529195816 83 52 10.0 11.0 0.00 0.00 0.00 86 1008.6
20170529195316 83 49 10.0 11.0 0.00 0.00 0.00 86 1008.6
20170529194816 83 55 9.0 11.0 0.00 0.00 0.00 86 1008.6
20170529194316 83 56 9.0 11.0 0.00 0.00 0.00 87 1008.5
20170529193816 83 42 9.0 11.0 0.00 0.00 0.00 86 1008.5
20170529193316 83 54 6.0 11.0 0.00 0.00 0.00 86 1008.5
20170529192816 83 55 8.0 12.0 0.00 0.00 0.00 86 1008.3
20170529192316 83 61 11.0 12.0 0.00 0.00 0.00 86 1008.3
20170529191816 83 59 11.0 11.0 0.00 0.00 0.00 86 1008.3
20170529191316 83 53 10.0 11.0 0.00 0.00 0.00 86 1008.2
20170529190816 83 64 7.0 11.0 0.00 0.00 0.00 86 1008.2
20170529190316 83 60 11.0 11.0 0.00 0.00 0.00 86 1008.2
20170529185816 83 60 9.0 11.0 0.00 0.00 0.00 86 1008.2
20170529185316 83 61 8.0 10.0 0.00 0.00 0.00 86 1008.2
20170529184816 83 57 7.0 10.0 0.00 0.00 0.00 87 1008.2
20170529184316 83 62 6.0 9.0 0.00 0.00 0.00 87 1008.2
20170529183816 83 59 9.0 10.0 0.00 0.00 0.00 87 1008.2
20170529183316 83 52 7.0 11.0 0.00 0.00 0.00 86 1008.2
20170529182816 83 49 8.0 11.0 0.00 0.00 0.00 87 1008.2
20170529182316 83 52 11.0 11.0 0.00 0.00 0.00 86 1008.2
20170529181816 83 58 10.0 11.0 0.00 0.00 0.00 85 1008.2
20170529181316 83 59 7.0 11.0 0.00 0.00 0.00 86 1008.1
20170529180816 83 59 10.0 11.0 0.00 0.00 0.00 86 1008.1
20170529180316 83 55 8.0 11.0 0.00 0.00 0.00 86 1008.1
20170529175816 83 59 9.0 10.0 0.00 0.00 0.00 86 1008.1
20170529175316 83 52 6.0 9.0 0.00 0.00 0.00 87 1008.1
20170529174816 83 62 7.0 9.0 0.00 0.00 0.00 87 1008.1
20170529174316 83 56 6.0 9.0 0.00 0.00 0.00 86 1008.2
20170529173815 83 47 8.0 9.0 0.00 0.00 0.00 87 1008.2
20170529173316 83 46 6.0 11.0 0.00 0.00 0.00 87 1008.2
20170529172816 83 45 8.0 11.0 0.00 0.00 0.00 87 1008.1
20170529172316 83 34 7.0 12.0 0.00 0.00 0.00 87 1008.1
20170529171816 83 36 5.0 14.0 0.00 0.00 0.00 87 1008.1
20170529171316 83 30 10.0 14.0 0.00 0.00 0.00 86 1008.2
20170529170816 83 36 13.0 14.0 0.00 0.00 0.00 86 1008.2
20170529170315 83 52 8.0 10.0 0.00 0.00 0.00 86 1008.2
20170529165816 83 43 6.0 10.0 0.00 0.00 0.00 86 1008.2
20170529165315 83 52 6.0 10.0 0.00 0.00 0.00 86 1008.2
20170529164816 83 41 8.0 11.0 0.00 0.00 0.00 86 1008.2
20170529164316 83 50 7.0 11.0 0.00 0.00 0.00 85 1008.2
20170529163816 83 59 8.0 11.0 0.00 0.00 0.00 86 1008.2
20170529163316 83 63 9.0 11.0 0.00 0.00 0.00 86 1008.2
20170529162816 83 57 7.0 11.0 0.00 0.00 0.00 86 1008.3
20170529162315 83 55 11.0 11.0 0.00 0.00 0.00 88 1008.3
20170529161816 82 33 6.0 8.0 0.00 0.00 0.00 88 1008.3
20170529161315 81 23 0.0 0.0 0.00 0.00 0.00 84 1008.4
20170529160816 81 23 0.0 1.0 0.00 0.00 0.00 83 1008.4
20170529160316 82 23 0.0 1.0 0.00 0.00 0.00 83 1008.4
20170529155816 82 23 0.0 4.0 0.00 0.00 0.00 83 1008.7
20170529154816 82 11 0.0 9.0 0.00 0.00 0.00 82 1008.7
20170529154315 83 11 2.0 10.0 0.00 0.00 0.00 82 1008.7
20170529153815 83 44 7.0 10.0 0.00 0.00 0.00 84 1008.7
20170529153315 83 34 8.0 10.0 0.00 0.00 0.00 83 1008.7
20170529152816 83 53 6.0 7.0 0.00 0.00 0.00 82 1008.7
20170529152315 82 55 3.0 7.0 0.00 0.00 0.00 81 1008.7
20170529151816 82 55 4.0 11.0 0.00 0.00 0.00 81 1008.7
20170529151315 82 39 5.0 15.0 0.00 0.00 0.00 80 1008.8
20170529150815 82 40 10.0 17.0 0.00 0.00 0.00 82 1008.8
20170529150316 83 57 14.0 17.0 0.00 0.00 0.00 83 1008.8
20170529145815 83 51 14.0 16.0 0.00 0.00 0.00 84 1009.0
20170529145316 84 61 11.0 13.0 0.00 0.00 0.00 85 1009.0
20170529144816 84 75 7.0 10.0 0.00 0.00 0.00 84 1009.0
20170529144316 84 74 8.0 10.0 0.00 0.00 0.00 84 1009.2
20170529143815 84 78 7.0 10.0 0.00 0.00 0.00 84 1009.2
20170529143316 84 73 9.0 10.0 0.00 0.00 0.00 84 1009.2
20170529142815 84 75 5.0 10.0 0.00 0.00 0.00 84 1009.2
20170529142316 84 48 6.0 10.0 0.00 0.00 0.00 85 1009.2
20170529141815 84 46 5.0 11.0 0.00 0.00 0.00 85 1009.2
20170529141316 84 59 10.0 11.0 0.00 0.00 0.00 84 1009.2
20170529140816 84 58 9.0 12.0 0.00 0.00 0.00 85 1009.2
20170529140316 84 50 9.0 13.0 0.00 0.00 0.00 85 1009.2
20170529135816 84 50 12.0 13.0 0.00 0.00 0.00 85 1009.3
20170529135316 84 64 10.0 11.0 0.00 0.00 0.00 85 1009.3
20170529134816 84 49 9.0 11.0 0.00 0.00 0.00 85 1009.3
20170529134316 84 71 9.0 12.0 0.00 0.00 0.00 84 1009.3
20170529133816 84 50 11.0 12.0 0.00 0.00 0.00 85 1009.3
20170529133315 84 69 9.0 11.0 0.00 0.00 0.00 85 1009.3
20170529132815 84 46 9.0 11.0 0.00 0.00 0.00 86 1009.4
20170529132316 84 49 6.0 12.0 0.00 0.00 0.00 86 1009.4
20170529131815 84 49 10.0 12.0 0.00 0.00 0.00 85 1009.4
20170529131316 84 61 10.0 12.0 0.00 0.00 0.00 85 1009.4
20170529130815 84 66 9.0 11.0 0.00 0.00 0.00 84 1009.4
20170529130316 84 65 10.0 12.0 0.00 0.00 0.00 84 1009.4
20170529125815 84 49 10.0 13.0 0.00 0.00 0.00 84 1009.3
20170529125315 84 56 12.0 13.0 0.00 0.00 0.00 84 1009.3
20170529124816 84 67 7.0 13.0 0.00 0.00 0.00 84 1009.3
20170529124316 84 65 9.0 13.0 0.00 0.00 0.00 85 1009.2
20170529123815 84 51 11.0 12.0 0.00 0.00 0.00 85 1009.2
20170529123316 84 55 10.0 12.0 0.00 0.00 0.00 85 1009.2
20170529122816 84 51 10.0 12.0 0.00 0.00 0.00 85 1009.2
20170529122315 84 55 8.0 11.0 0.00 0.00 0.00 85 1009.2
20170529121816 84 56 9.0 11.0 0.00 0.00 0.00 86 1009.2
20170529121316 84 42 7.0 12.0 0.00 0.00 0.00 85 1009.2
20170529120815 84 54 8.0 13.0 0.00 0.00 0.00 85 1009.2
20170529120316 84 45 12.0 13.0 0.00 0.01 0.00 84 1009.2
20170529115815 84 49 12.0 13.0 0.00 0.01 0.00 83 1009.0
20170529115316 84 59 10.0 14.0 0.00 0.01 0.00 85 1009.0
20170529114816 84 49 11.0 14.0 0.00 0.01 0.00 86 1009.0
20170529114316 84 55 11.0 14.0 0.00 0.01 0.00 86 1008.9
20170529113816 84 53 11.0 14.0 0.00 0.01 0.00 85 1008.9
20170529113316 84 49 10.0 13.0 0.00 0.01 0.00 84 1008.9
20170529112816 84 67 13.0 13.0 0.00 0.01 0.00 85 1008.8
20170529112315 84 63 11.0 13.0 0.00 0.01 0.00 85 1008.8
20170529111815 84 57 10.0 13.0 0.00 0.01 0.00 84 1008.8
20170529111315 84 69 12.0 13.0 0.00 0.01 0.00 84 1008.7
20170529110815 84 58 11.0 13.0 0.00 0.01 0.00 85 1008.7
20170529110316 84 59 10.0 13.0 0.00 0.01 0.00 85 1008.7
20170529105815 84 49 10.0 14.0 0.00 0.01 0.00 85 1008.6
20170529105315 84 53 11.0 14.0 0.00 0.01 0.00 85 1008.6
20170529104815 84 52 11.0 13.0 0.00 0.01 0.00 84 1008.6
20170529104315 84 59 10.0 14.0 0.00 0.01 0.00 84 1008.3
20170529103818 84 59 12.0 14.0 0.00 0.01 0.00 83 1008.3
20170529103316 84 52 12.0 14.0 0.00 0.01 0.00 83 1008.3
20170529102816 84 64 12.0 15.0 0.00 0.01 0.00 83 1008.2
20170529102315 84 65 10.0 15.0 0.00 0.01 0.00 83 1008.2
20170529101815 84 69 11.0 15.0 0.00 0.01 0.00 83 1008.2
20170529101315 84 63 11.0 13.0 0.00 0.01 0.00 83 1008.2
20170529100815 84 60 12.0 15.0 0.00 0.01 0.00 82 1008.2
20170529100315 84 56 13.0 15.0 0.00 0.01 0.00 83 1008.2
20170529095815 84 46 12.0 15.0 0.00 0.01 0.00 84 1008.1
20170529095315 84 57 12.0 15.0 0.00 0.01 0.00 84 1008.1
20170529094815 84 57 14.0 15.0 0.00 0.04 0.00 84 1008.1
20170529094315 84 48 13.0 14.0 0.00 0.04 0.00 84 1007.8
20170529093816 85 46 11.0 14.0 0.00 0.04 0.00 85 1007.8
20170529093315 84 57 12.0 14.0 0.00 0.04 0.00 84 1007.8
20170529092815 84 53 10.0 15.0 0.00 0.04 0.00 83 1007.7
20170529092315 84 53 12.0 15.0 0.00 0.04 0.00 83 1007.7
20170529091816 84 49 12.0 15.0 0.00 0.04 0.00 83 1007.7